Weather History for Orlando, FL

Change the Weather History Date:

Friday, May 3, 2013

  Actual Average Record
Temperature  
Mean Temperature 74 °F -  
Max Temperature 80 °F 83 °F 93 °F (2002)
Min Temperature 68 °F 63 °F 59 °F (1999)
Cooling Degree Days 8    
Growing Degree Days 24 (Base 50)    
Moisture  
Dew Point 67 °F    
Average Humidity 86    
Maximum Humidity 100    
Minimum Humidity 65    
Precipitation  
Precipitation 0.01 in - - ()
Sea Level Pressure  
Sea Level Pressure 29.77 in    
Wind  
Wind Speed 7 mph (NE)    
Max Wind Speed 22 mph    
Max Gust Speed 30 mph    
Visibility 10 miles    
Events Rain    
Averages and records for this station are not official NWS values.
T = Trace of Precipitation, MM = Missing Value Source: NWS Daily Summary

Daily Weather History Graph

Daily Weather History Graph

Search for Another Location

Airport:

Trip Planner

Search our weather history database for the weather conditions in past years. The results will help you decide how hot, cold, wet, or windy it might be!

Date:

Astronomy

May. 03, 2013 Rise Set
Actual Time 6:42 AM EDT 8:01 PM EDT
Civil Twilight 6:17 AM EDT 8:27 PM EDT
Nautical Twilight 5:47 AM EDT 8:56 PM EDT
Astronomical Twilight 5:17 AM EDT 9:27 PM EDT
Moon 2:35 AM EDT (5/3) 2:23 PM EDT (5/3)
Length of Visible Light 14h 09m
Length of Day
13h 19m
Last Quarter, 37% of the Moon is Illuminated
May 3
Last Quarter
May 9
New
May 18
First Quarter
May 25
Full
May 31
Last Quarter

Hourly Weather History & Observations

Time (EDT) Temp. Dew Point Humidity Pressure Visibility Wind Dir Wind Speed Gust Speed Precip Events Conditions
12:53 AM 69.1 °F 66.9 °F 93% 29.86 in 10.0 mi South 4.6 mph - N/A   Overcast
1:53 AM 69.1 °F 68.0 °F 96% 29.85 in 10.0 mi South 3.5 mph - N/A   Overcast
2:53 AM 69.1 °F 68.0 °F 96% 29.82 in 10.0 mi Calm Calm - N/A   Overcast
4:32 AM 68.0 °F 68.0 °F 100% 29.80 in 10.0 mi NNE 4.6 mph - N/A   Mostly Cloudy
4:53 AM 69.1 °F 68.0 °F 96% 29.82 in 10.0 mi NE 4.6 mph - N/A   Overcast
5:09 AM 68.0 °F 68.0 °F 100% 29.81 in 10.0 mi ENE 5.8 mph - N/A   Overcast
5:25 AM 68.0 °F 68.0 °F 100% 29.80 in 9.0 mi ENE 3.5 mph - 0.00 in Rain Light Rain
5:41 AM 68.0 °F 68.0 °F 100% 29.81 in 10.0 mi Calm Calm - 0.00 in   Overcast
5:53 AM 68.0 °F 68.0 °F 100% 29.82 in 10.0 mi Calm Calm - 0.00 in   Mostly Cloudy
6:05 AM 68.0 °F 68.0 °F 100% 29.81 in 10.0 mi Calm Calm - N/A   Mostly Cloudy
6:15 AM 68.0 °F 68.0 °F 100% 29.81 in 10.0 mi Calm Calm - N/A   Overcast
6:42 AM 68.0 °F 66.2 °F 94% 29.81 in 10.0 mi Calm Calm - N/A   Scattered Clouds
6:53 AM 68.0 °F 66.9 °F 96% 29.82 in 10.0 mi NE 3.5 mph - N/A   Clear
7:04 AM 68.0 °F 66.2 °F 94% 29.81 in 10.0 mi NNE 4.6 mph - N/A   Partly Cloudy
7:53 AM 68.0 °F 66.9 °F 96% 29.83 in 10.0 mi NNE 5.8 mph - N/A   Scattered Clouds
8:05 AM 68.0 °F 66.2 °F 94% 29.82 in 10.0 mi NNE 4.6 mph - N/A   Mostly Cloudy
8:38 AM 69.8 °F 68.0 °F 94% 29.82 in 10.0 mi ENE 9.2 mph - N/A   Scattered Clouds
8:53 AM 71.1 °F 68.0 °F 90% 29.82 in 10.0 mi NE 5.8 mph - N/A   Scattered Clouds
9:40 AM 71.6 °F 68.0 °F 88% 29.83 in 10.0 mi NE 8.1 mph - N/A   Mostly Cloudy
9:53 AM 73.0 °F 66.9 °F 81% 29.84 in 10.0 mi NE 5.8 mph - N/A   Overcast
10:53 AM 75.0 °F 66.0 °F 73% 29.82 in 10.0 mi NNE 8.1 mph - N/A   Mostly Cloudy
10:56 AM 75.2 °F 66.2 °F 73% 29.81 in 10.0 mi NNE 8.1 mph - N/A   Mostly Cloudy
11:51 AM 78.8 °F 66.2 °F 65% 29.81 in 10.0 mi North 8.1 mph - N/A   Scattered Clouds
11:53 AM 78.1 °F 66.0 °F 66% 29.82 in 10.0 mi North 6.9 mph - N/A   Scattered Clouds
12:53 PM 78.1 °F 66.9 °F 68% 29.80 in 10.0 mi NNE 12.7 mph - N/A   Mostly Cloudy
1:44 PM 77.0 °F 66.2 °F 69% 29.77 in 10.0 mi ENE 13.8 mph - N/A   Mostly Cloudy
1:53 PM 78.1 °F 66.9 °F 68% 29.77 in 10.0 mi NE 9.2 mph - N/A   Mostly Cloudy
2:53 PM 79.0 °F 66.9 °F 66% 29.76 in 10.0 mi NNE 15.0 mph - N/A   Scattered Clouds
3:53 PM 75.9 °F 66.9 °F 74% 29.74 in 10.0 mi NE 13.8 mph 29.9 mph N/A   Scattered Clouds
4:09 PM 77.0 °F 68.0 °F 74% 29.72 in 10.0 mi NE 16.1 mph 27.6 mph N/A   Mostly Cloudy
4:22 PM 77.0 °F 66.2 °F 69% 29.72 in 10.0 mi NE 21.9 mph 29.9 mph N/A   Scattered Clouds
4:51 PM 73.4 °F 66.2 °F 78% 29.72 in 10.0 mi ENE 18.4 mph 25.3 mph N/A   Mostly Cloudy
4:53 PM 73.9 °F 66.9 °F 79% 29.73 in 10.0 mi ENE 20.7 mph 25.3 mph N/A   Scattered Clouds
5:24 PM 73.4 °F 68.0 °F 83% 29.72 in 10.0 mi ENE 9.2 mph - N/A   Mostly Cloudy
5:53 PM 71.1 °F 68.0 °F 90% 29.73 in 10.0 mi NE 9.2 mph 19.6 mph 0.00 in Rain Light Rain
6:15 PM 71.6 °F 66.2 °F 83% 29.72 in 10.0 mi NE 13.8 mph 23.0 mph 0.00 in   Overcast
6:22 PM 69.8 °F 66.2 °F 88% 29.71 in 10.0 mi NE 13.8 mph 23.0 mph 0.00 in   Overcast
6:53 PM 71.1 °F 66.9 °F 87% 29.73 in 10.0 mi NE 10.4 mph - 0.00 in   Overcast
7:02 PM 71.6 °F 66.2 °F 83% 29.72 in 7.0 mi NE 9.2 mph 24.2 mph N/A   Overcast
7:25 PM 69.8 °F 66.2 °F 88% 29.72 in 10.0 mi NE 15.0 mph 19.6 mph 0.00 in Rain Light Rain
7:36 PM 69.8 °F 66.2 °F 88% 29.72 in 10.0 mi NNE 18.4 mph 25.3 mph 0.00 in   Overcast
7:53 PM 71.1 °F 64.9 °F 81% 29.73 in 10.0 mi NNE 18.4 mph 25.3 mph 0.00 in   Overcast
8:53 PM 71.1 °F 66.0 °F 84% 29.73 in 10.0 mi North 13.8 mph 19.6 mph N/A   Overcast
9:49 PM 69.8 °F 66.2 °F 88% 29.70 in 5.0 mi North 18.4 mph 27.6 mph 0.00 in Rain Light Rain
9:53 PM 70.0 °F 66.9 °F 90% 29.72 in 7.0 mi NNE 17.3 mph 26.5 mph 0.00 in   Overcast
10:41 PM 69.8 °F 66.2 °F 88% 29.71 in 10.0 mi NE 18.4 mph 25.3 mph 0.01 in   Mostly Cloudy
10:53 PM 69.1 °F 64.9 °F 87% 29.73 in 10.0 mi NE 15.0 mph 23.0 mph 0.01 in   Mostly Cloudy
11:03 PM 69.8 °F 66.2 °F 88% 29.72 in 10.0 mi NE 15.0 mph 20.7 mph N/A   Mostly Cloudy
11:53 PM 70.0 °F 66.9 °F 90% 29.72 in 10.0 mi NE 10.4 mph 18.4 mph N/A   Overcast